This is the latest recevied weather packets stored in our database for station/object CE3TDM-10. If no packets are shown the sender has not sent any weather packets the latest 10 day(s).
| Time | Temp. | Humidity | Pressure | Rain* | Wind** | Luminosity | Snow |
|---|---|---|---|---|---|---|---|
| 1788541344 | 24.44° C | 34% | 923.5 hPa | - | - | - | - |
| 1788540437 | 23.89° C | 34% | 923.6 hPa | - | - | - | - |
| 1788539537 | 23.89° C | 34% | 923.7 hPa | - | - | - | - |
| 1788538637 | 23.89° C | 33% | 923.8 hPa | - | - | - | - |
| 1788537737 | 24.44° C | 33% | 923.8 hPa | - | - | - | - |
| 1788536836 | 26.11° C | 32% | 924.1 hPa | - | - | - | - |
| 1788535936 | 27.78° C | 33% | 924.3 hPa | - | - | - | - |
| 1788535036 | 27.78° C | 33% | 924.3 hPa | - | - | - | - |
| 1788534136 | 26.67° C | 34% | 924.4 hPa | - | - | - | - |
| 1788533236 | 26.67° C | 34% | 924.4 hPa | - | - | - | - |
| 1788532336 | 26.11° C | 35% | 924.5 hPa | - | - | - | - |
| 1788531436 | 26.11° C | 34% | 924.7 hPa | - | - | - | - |
| 1788530536 | 27.22° C | 34% | 924.7 hPa | - | - | - | - |
| 1788529636 | 28.33° C | 34% | 924.8 hPa | - | - | - | - |
| 1788528736 | 26.67° C | 34% | 924.8 hPa | - | - | - | - |
| 1788527836 | 25.56° C | 34% | 924.8 hPa | - | - | - | - |
| 1788526036 | 23.89° C | 35% | 924.8 hPa | - | - | - | - |
| 1788524235 | 23.33° C | 34% | 924.8 hPa | - | - | - | - |
| 1788523335 | 23.33° C | 34% | 924.7 hPa | - | - | - | - |
| 1788522435 | 23.33° C | 34% | 924.7 hPa | - | - | - | - |
| 1788521535 | 23.33° C | 34% | 924.8 hPa | - | - | - | - |
| 1788517035 | 23.33° C | 34% | 924.4 hPa | - | - | - | - |
| 1788515235 | 23.89° C | 34% | 924.4 hPa | - | - | - | - |
| 1788513435 | 23.89° C | 34% | 924.3 hPa | - | - | - | - |
| 1788511634 | 23.89° C | 34% | 924.3 hPa | - | - | - | - |
* Rain since midnight (hover to see other rain measurements)
** Current wind speed in m/s (hover to see current wind gust speed)